Location: Cottonwood Creek
(38.1845°N, 100.1435°W)
Time: 13:27:32
(UTC+00:00)

Daily predictions for brighter satellites

Satellite Brightness Start Highest point End
(mag) Time Altitude Azimuth Time Altitude Azimuth Time Altitude Azimuth
COSMOS 2428 3.8 12:09:46 26° NW 12:09:46 26° NW 12:13:25 10° N
SKYMED 3 4.4 12:04:14 10° S 12:08:34 75° WSW 12:11:03 25° NNW
Cosmos 1908 3.6 12:05:12 10° S 12:08:56 62° E 12:12:43 10° NNE
CZ-2C R/B 2.1 12:09:02 33° SW 12:10:17 44° S 12:14:07 10° E
BREEZE-M DEB (TANK) 2.0 12:10:28 64° WSW 12:10:54 85° NW 12:17:01 10° NE
ADEOS 4.0 12:07:46 10° N 12:12:34 38° WNW 12:13:09 37° W
Cosmos 1953 2.1 12:09:53 10° SSW 12:13:51 68° W 12:17:49 10° N
Cosmos 1980 3.6 12:08:38 10° SSW 12:14:13 63° WNW 12:19:51 10° NNE
NOSS 3-2 (A) 4.0 12:12:53 10° SSW 12:18:13 54° ESE 12:24:10 10° NE
ATLAS CENTAUR R/B 2.0 12:15:24 10° SSW 12:19:01 49° ESE 12:22:34 10° NE
Okean 1-7 Rocket 3.6 12:16:19 17° NNW 12:19:43 59° W 12:24:06 10° S
Cosmos 1626 Rocket 3.8 12:17:45 10° N 12:22:14 74° E 12:26:41 10° SSE
Cosmos 1763 Rocket 4.5 12:23:13 26° NW 12:23:13 26° NW 12:26:57 10° N
Cosmos 858 Rocket 4.4 12:18:27 16° NNW 12:22:42 69° WSW 12:27:51 10° S
H-2A R/B 4.3 12:25:01 10° NNE 12:29:13 37° E 12:33:23 10° SSE
Cosmos 841 Rocket 3.6 12:24:39 10° SW 12:29:35 47° WNW 12:34:34 10° N
SKYMED 2 4.0 12:28:36 10° SSW 12:32:38 38° W 12:35:22 18° NW
Cosmos 1464 Rocket 4.3 12:27:31 10° SW 12:33:09 38° WNW 12:38:52 10° N
SAR-Lupe-4 3.4 12:30:58 10° S 12:34:31 67° WSW 12:38:06 10° NNW
USA 307 3.0 12:30:46 10° SW 12:34:59 75° SE 12:39:12 10° NE
Cosmos 1340 2.6 12:32:55 10° N 12:36:42 84° E 12:40:27 10° S
Cosmos 1898 Rocket 4.1 12:34:29 21° NW 12:37:01 33° W 12:41:36 10° SSW
deb Chang Zheng 4 4.3 12:39:22 10° N 12:43:00 28° WNW 12:46:36 10° SW
USA 305 2.8 12:39:25 10° SW 12:43:40 87° NW 12:47:55 10° NE
USA 308 2.8 12:39:31 10° SW 12:43:44 88° SE 12:47:58 10° NE
PSLV R/B 4.0 12:39:45 10° S 12:43:45 54° W 12:47:49 10° NNW
SAR-Lupe-1 4.2 12:41:37 10° S 12:45:04 48° W 12:48:34 10° NNW
BREEZE M DEB (TANK) 1.4 12:44:54 34° W 12:45:29 48° SW 12:47:42 10° SE
Meteor 1-16 Rocket 4.4 12:40:15 10° SSW 12:45:58 53° WNW 12:51:46 10° N
Cosmos 1689 Rocket 2.3 12:44:14 10° S 12:47:01 43° W 12:49:09 15° NNW
Cosmos 1570 Rocket 4.4 12:44:13 10° SW 12:49:03 39° WNW 12:53:58 10° N
BREEZE-M DEB (TANK) 3.1 12:43:37 10° SW 12:49:25 64° SE 12:51:48 10° ENE
Cosmos 2098 Rocket 4.4 12:44:17 10° N 12:50:08 54° ENE 12:54:44 10° SSE
Cosmos 1703 3.3 12:47:44 10° NNW 12:51:33 55° W 12:55:22 10° S
CENTAUR R/B 3.0 12:47:17 10° SSW 12:52:49 62° ESE 12:59:20 10° NE
USA 306 2.8 12:51:21 10° SW 12:55:35 70° NW 12:59:49 10° NE
Okean O Rocket 2.7 12:51:51 10° NNE 12:56:06 49° E 13:00:18 10° S
Cosmos 972 Rocket 4.4 12:51:27 10° SSW 12:58:07 75° WNW 13:04:04 10° NNE
H-2A R/B 3.7 12:56:02 10° NNW 12:59:04 24° WNW 13:02:08 10° SW
Cosmos 1346 Rocket 3.3 12:57:01 10° N 13:00:58 62° E 13:04:53 10° SSE
Cosmos 1602 Rocket 3.7 12:58:40 10° NNW 13:03:00 51° W 13:07:19 10° S
Cosmos 1092 Rocket 4.0 12:58:07 10° NNW 13:04:12 66° W 13:10:17 10° S
CZ-4B R/B 4.2 13:03:32 10° NNW 13:05:40 15° WNW 13:07:51 10° WSW
Cosmos 372 Rocket 4.2 13:02:37 10° NNW 13:07:41 50° WSW 13:12:42 10° S
YAOGAN 6 3.4 13:04:28 10° N 13:07:43 29° WNW 13:10:57 10° SW
Cosmos 44 Rocket 4.2 13:03:14 10° NW 13:07:57 35° WSW 13:12:35 10° S
Lacrosse 5 rocket 1.0 13:04:36 10° NW 13:08:27 88° SW 13:12:06 10° SE
Cosmos 2279 Rocket 4.2 13:03:55 10° S 13:10:07 78° E 13:16:23 10° N
USA 238 DEB 3.6 13:04:09 10° SW 13:10:39 76° NW 13:17:29 10° NNE
USA 238 3.6 13:04:15 10° SW 13:10:47 76° NW 13:17:36 10° NNE
Cosmos 1125 Rocket 4.1 13:06:24 10° NNW 13:11:41 62° ENE 13:16:55 10° SSE
Cosmos 2369 Rocket 4.2 13:07:26 10° N 13:12:00 25° ENE 13:16:32 10° ESE
SL-16 R/B 2.2 13:07:50 10° SSW 13:13:25 62° WNW 13:19:03 10° NNE
Envisat 3.5 13:10:03 10° N 13:14:41 36° WNW 13:19:17 10° SW
AQUARIUS 4.1 13:10:28 10° N 13:14:58 80° WNW 13:19:28 10° SSW
Chandra Rocket (1) 3.7 13:14:43 10° SW 13:16:26 13° SSW 13:17:52 10° SSE
NOAA 12 4.1 13:11:25 10° N 13:16:43 74° WNW 13:21:59 10° SSW
Meteor 1-11 4.2 13:11:40 10° NNW 13:17:13 71° W 13:22:46 10° S
Cosmos 2278 Rocket 3.2 13:13:38 10° NW 13:18:11 25° WSW 13:22:43 10° SSW
CZ-2C R/B 2.6 13:13:10 10° S 13:18:21 79° WSW 13:23:41 10° NNW
Cosmos 1939 Rocket 3.7 13:14:56 10° NNE 13:18:47 55° E 13:22:33 10° S
SL-8 R/B 4.1 13:14:16 10° WNW 13:18:57 53° SW 13:23:38 10° SE
CZ-4B R/B 3.3 13:13:41 10° NNE 13:19:22 89° W 13:24:56 10° SSW
Cosmos 1943 Rocket 3.2 13:14:26 10° NNW 13:19:56 49° ENE 13:25:24 10° SE
Cosmos 1825 Rocket 3.6 13:15:40 10° N 13:20:10 89° W 13:24:37 10° S
Lacrosse 4 Rocket 2.2 13:16:39 10° WSW 13:20:23 30° WNW 13:24:15 10° N
Cosmos 1400 Rocket 4.1 13:17:49 10° WSW 13:20:54 21° WNW 13:24:02 10° NNW
COSMO-SKYMED 1 4.5 13:19:50 10° WSW 13:21:04 11° W 13:22:19 10° WNW
Spot 2 4.4 13:19:04 10° N 13:22:50 39° WNW 13:26:38 10° SW
Cosmos 1300 3.0 13:19:57 10° SSW 13:23:36 45° W 13:27:16 10° N
NOAA 6 4.4 13:20:31 10° N 13:25:22 41° WNW 13:30:12 10° SW
SMAP 3.2 13:20:51 10° N 13:25:24 54° WNW 13:29:56 10° SSW
Cosmos 2237 Rocket 3.5 13:21:43 10° W 13:25:36 19° NW 13:29:31 10° N
GEOS 3 Rocket 4.4 13:21:11 10° S 13:26:03 36° WSW 13:30:59 10° NW
Cosmos 1634 Rocket 4.2 13:20:28 10° SSW 13:26:21 47° W 13:32:18 10° N
Atlas Centaur 2 3.8 13:20:09 10° WSW 13:27:55 49° S 13:36:01 10° ESE
